SGDC

Last updated on Thu Oct 30 2025 00:02:50 GMT+0000 (Coordinated Universal Time)

1 42692U 17023B 25302.10315530 -.00000240 00000+0 00000+0 0 9991 2 42692 0.0479 69.2505 0003259 163.7031 127.0518 1.00271416 31080
UTC large
Height (km)
Speed (km/s)
/
Latitude / Longitude
Inclination (degrees)
Orbital Period (minutes)
Azimuth
Elevation
Range (km)
Doppler Factor

Next 0 passes for location: London (51.5072 / 0.1276)

Sorry there are no passes over London.